Weather History for KMMK - January, 2013

Change the Weather History Date:

Thursday, January 10, 2013

  Actual Average (KHVN) Record (KHVN)
Temperature  
Mean Temperature 36 °F -  
Max Temperature 46 °F 35 °F 53 °F (1972)
Min Temperature 26 °F 23 °F 0 °F (2004)
Degree Days  
Heating Degree Days 29    
Moisture  
Dew Point 22 °F    
Average Humidity 53    
Maximum Humidity 84    
Minimum Humidity 34    
Precipitation  
Precipitation 0.00 in - - ()
Sea Level Pressure  
Sea Level Pressure 30.42 in    
Wind  
Wind Speed 8 mph (NW)    
Max Wind Speed 18 mph    
Max Gust Speed 29 mph    
Visibility 10 miles    
Events      
Averages and records for this station are not official NWS values.
T = Trace of Precipitation, MM = Missing Value Source: NWS Daily Summary

Daily Weather History Graph

Daily Weather History Graph

Search for Another Location

Airport or City:

Trip Planner

Search our weather history database for the weather conditions in past years. The results will help you decide how hot, cold, wet, or windy it might be!

Date:

Astronomy

Jan. 10, 2013 Rise Set
Actual Time 7:17 AM EST 4:41 PM EST
Civil Twilight 6:46 AM EST 5:12 PM EST
Nautical Twilight 6:11 AM EST 5:46 PM EST
Astronomical Twilight 5:38 AM EST 6:19 PM EST
Moon 5:54 AM EST (1/10) 3:45 PM EST (1/10)
Length of Visible Light 10h 25m
Length of Day
9h 24m
Waning Crescent, 2% of the Moon is Illuminated
Jan 10
Waning Crescent
Jan 11
New
Jan 18
First Quarter
Jan 26
Full
Feb 3
Last Quarter

Hourly Weather History & Observations

Time (EST) Temp. Windchill Dew Point Humidity Pressure Visibility Wind Dir Wind Speed Gust Speed Precip Events Conditions
12:53 AM 42.1 °F 38.4 °F 30.9 °F 65% 30.17 in 10.0 mi West 5.8 mph - N/A   Clear
1:53 AM 41.0 °F 38.0 °F 30.0 °F 65% 30.21 in 10.0 mi West 4.6 mph - N/A   Clear
2:53 AM 43.0 °F 36.4 °F 21.0 °F 42% 30.25 in 10.0 mi NW 12.7 mph 23.0 mph N/A   Clear
3:53 AM 43.0 °F 35.1 °F 21.9 °F 43% 30.26 in 10.0 mi NW 17.3 mph 24.2 mph N/A   Clear
4:53 AM 43.0 °F 36.8 °F 23.0 °F 45% 30.29 in 10.0 mi NW 11.5 mph 20.7 mph N/A   Clear
5:53 AM 39.9 °F 32.1 °F 19.9 °F 45% 30.31 in 10.0 mi NW 13.8 mph 25.3 mph N/A   Clear
6:53 AM 39.0 °F 31.8 °F 21.0 °F 49% 30.38 in 10.0 mi NW 11.5 mph - N/A   Clear
7:53 AM 36.0 °F 33.3 °F 21.9 °F 57% 30.42 in 10.0 mi NW 3.5 mph - N/A   Clear
8:53 AM 41.0 °F 35.2 °F 21.0 °F 45% 30.45 in 10.0 mi NW 9.2 mph - N/A   Clear
9:53 AM 43.0 °F 36.8 °F 21.0 °F 42% 30.46 in 10.0 mi NW 11.5 mph 17.3 mph N/A   Clear
10:53 AM 44.1 °F 40.8 °F 21.0 °F 40% 30.46 in 10.0 mi WNW 5.8 mph 18.4 mph N/A   Clear
11:53 AM 45.0 °F 37.4 °F 19.9 °F 37% 30.43 in 10.0 mi WNW 18.4 mph 28.8 mph N/A   Clear
12:53 PM 46.0 °F 39.9 °F 19.9 °F 35% 30.41 in 10.0 mi NNW 13.8 mph 24.2 mph N/A   Clear
1:53 PM 46.9 °F - 19.9 °F 34% 30.42 in 10.0 mi NW 15.0 mph 23.0 mph N/A   Clear
2:53 PM 46.0 °F 40.2 °F 19.9 °F 35% 30.44 in 10.0 mi NNW 12.7 mph 19.6 mph N/A   Clear
3:53 PM 45.0 °F 39.3 °F 19.9 °F 37% 30.47 in 10.0 mi NW 11.5 mph - N/A   Clear
4:53 PM 42.1 °F 37.1 °F 21.0 °F 43% 30.48 in 10.0 mi NNW 8.1 mph - N/A   Clear
5:53 PM 36.0 °F 33.3 °F 21.9 °F 57% 30.51 in 10.0 mi NW 3.5 mph - N/A   Clear
6:53 PM 32.0 °F - 23.0 °F 69% 30.52 in 10.0 mi Calm Calm - N/A   Clear
7:53 PM 30.0 °F - 23.0 °F 75% 30.54 in 10.0 mi Calm Calm - N/A   Clear
8:53 PM 28.9 °F - 21.9 °F 75% 30.55 in 10.0 mi Calm Calm - N/A   Clear
9:53 PM 28.9 °F - 23.0 °F 78% 30.55 in 10.0 mi Calm Calm - N/A   Clear
10:53 PM 26.1 °F 21.9 °F 21.9 °F 84% 30.54 in 10.0 mi SSE 3.5 mph - N/A   Clear
11:53 PM 26.1 °F 21.9 °F 21.9 °F 84% 30.55 in 10.0 mi SE 3.5 mph - N/A   Clear